Location: Archemont
(49.1579°N, 1.7598°E)
Time: 11:16:10
(UTC+00:00)

deb Explorer IX - Pass Details

Date: 20 April 2024
Orbit: 513 x 891 km, 38.7° (Epoch: 23 May)

Event Time Altitude Azimuth Distance (km) Brightness Sun altitude
Rises 13:56:51 0° 257° (WSW) 3,498 ? 44.6°
Reaches altitude 10° 13:59:44 10° 247° (WSW) 2,573 ? 44.3°
Maximum altitude 14:04:57 29° 190° (S) 1,587 ? 43.6°
Drops below altitude 10° 14:10:06 10° 132° (SE) 2,527 ? 43.0°
Sets 14:12:55 0° 122° (ESE) 3,425 ? 42.6°
